CW2927 Weather Reports


time (UTC)temp
C
wind
direction
speed
KPH
gust
KPH
rain 1hr
cm
rain 24hr
cm
rain mn
cm
humidity
%
barometer
mb
20260503020704 6 212 1.6 3.2 0.00 0.05 0.05 83 1011.3
20260503020205 6 212 3.2 4.8 0.00 0.05 0.05 83 1011.3
20260503014704 6 212 3.2 8.0 0.00 0.05 0.05 83 1011.2
20260503014204 6 202 4.8 4.8 0.00 0.05 0.05 84 1011.2
20260503012704 6 178 1.6 4.8 0.00 0.05 0.05 83 1010.9
20260503012205 6 178 1.6 4.8 0.00 0.05 0.05 83 1011.0
20260503010705 6 178 3.2 4.8 0.00 0.05 0.05 82 1011.0
20260503010205 6 178 3.2 4.8 0.00 0.05 0.05 82 1011.0
20260503004705 6 175 1.6 3.2 0.00 0.05 0.05 80 1010.8
20260503004205 6 175 0.0 8.0 0.00 0.05 0.05 80 1010.8
20260503002705 6 174 1.6 4.8 0.00 0.05 0.05 79 1010.7
20260503002204 6 173 3.2 9.7 0.00 0.05 0.05 78 1010.7
20260503000704 7 178 3.2 8.0 0.00 0.05 0.05 77 1010.6
20260503000204 7 177 3.2 8.0 0.00 0.05 0.05 77 1010.5
20260502234705 7 195 4.8 8.0 0.00 0.05 0.05 75 1010.6
20260502234205 7 196 3.2 8.0 0.00 0.05 0.05 75 1010.6
20260502232705 7 190 3.2 4.8 0.00 0.05 0.05 74 1010.4
20260502232205 7 190 3.2 9.7 0.00 0.05 0.05 74 1010.4
20260502230705 7 219 3.2 4.8 0.00 0.05 0.05 73 1010.2
20260502230205 7 218 4.8 9.7 0.00 0.05 0.05 72 1010.2
20260502224704 7 195 3.2 8.0 0.00 0.05 0.05 73 1010.1
20260502224205 7 210 4.8 9.7 0.00 0.05 0.05 74 1010.1
20260502222705 7 222 1.6 4.8 0.03 0.05 0.05 78 1010.1
20260502222205 7 225 3.2 8.0 0.03 0.05 0.05 78 1010.2
20260502220704 7 242 3.2 4.8 0.03 0.05 0.05 79 1010.3
20260502220205 7 271 1.6 9.7 0.03 0.05 0.05 81 1010.2
20260502214705 7 280 6.4 11.3 0.03 0.05 0.05 80 1010.4
20260502214205 7 269 6.4 19.3 0.03 0.05 0.05 79 1010.4
20260502212705 8 287 11.3 24.1 0.00 0.03 0.03 70 1010.5
20260502212204 9 259 14.5 27.4 0.00 0.03 0.03 67 1010.4
20260502210704 10 178 4.8 8.0 0.00 0.03 0.03 62 1010.0
20260502210205 11 173 3.2 9.7 0.00 0.03 0.03 61 1010.0
20260502204704 11 164 3.2 4.8 0.00 0.03 0.03 60 1010.0
20260502204205 11 163 6.4 12.9 0.00 0.03 0.03 60 1010.0
20260502202705 10 145 3.2 4.8 0.00 0.03 0.03 65 1010.0
20260502202204 10 146 1.6 8.0 0.00 0.03 0.03 64 1010.1
20260502200705 10 144 3.2 4.8 0.00 0.03 0.03 65 1010.1
20260502200205 10 144 3.2 9.7 0.00 0.03 0.03 65 1010.2
20260502194704 10 117 3.2 4.8 0.00 0.03 0.03 65 1010.4
20260502194204 10 115 6.4 12.9 0.00 0.03 0.03 64 1010.3
20260502192704 10 191 3.2 8.0 0.00 0.03 0.03 69 1010.4
20260502192205 10 171 3.2 9.7 0.00 0.03 0.03 68 1010.5
20260502190204 8 265 1.6 4.8 0.00 0.03 0.03 74 1010.6
20260502184705 8 287 0.0 3.2 0.00 0.03 0.03 77 1010.7
20260502184204 7 286 1.6 4.8 0.03 0.03 0.03 77 1010.8
20260502182705 7 286 3.2 4.8 0.03 0.03 0.03 80 1010.8
20260502182204 7 286 1.6 8.0 0.03 0.03 0.03 81 1010.8
20260502180705 6 287 3.2 4.8 0.03 0.03 0.03 81 1010.8
20260502180204 6 286 4.8 8.0 0.03 0.03 0.03 80 1010.9
20260502170204 7 278 4.8 9.7 0.00 0.00 0.00 72 1010.8
20260502164204 8 305 8.0 12.9 0.00 0.00 0.00 69 1010.8
20260502162704 8 289 4.8 11.3 0.00 0.00 0.00 67 1010.8
20260502162206 8 292 8.0 12.9 0.00 0.00 0.00 66 1010.8
20260502160704 8 297 4.8 9.7 0.00 0.00 0.00 66 1010.9
20260502160204 8 273 3.2 9.7 0.00 0.00 0.00 66 1010.9
20260502152205 8 251 4.8 12.9 0.00 0.00 0.00 68 1011.3
20260502150704 8 270 3.2 4.8 0.00 0.00 0.00 69 1011.4
20260502150204 8 272 6.4 12.9 0.00 0.00 0.00 69 1011.5
20260502130704 5 66 1.6 4.8 0.00 0.00 0.00 75 1012.0
20260502130204 5 66 0.0 4.8 0.00 0.00 0.00 74 1012.0
20260502122704 3 66 0.0 4.8 0.00 0.00 0.00 75 1012.0
20260502122204 3 65 3.2 4.8 0.00 0.00 0.00 74 1011.9
20260502120704 3 65 3.2 4.8 0.00 0.00 0.00 74 1011.9
20260502120204 3 65 3.2 4.8 0.00 0.00 0.00 74 1011.9
20260502114705 3 65 3.2 4.8 0.00 0.00 0.00 74 1011.9
20260502112704 2 65 3.2 4.8 0.00 0.00 0.00 75 1011.9
20260502112204 2 65 3.2 8.0 0.00 0.00 0.00 76 1011.9
20260502110704 2 65 3.2 4.8 0.00 0.00 0.00 78 1011.9
20260502110204 2 65 1.6 4.8 0.00 0.00 0.00 78 1011.9
20260502104704 2 65 3.2 4.8 0.00 0.00 0.00 77 1011.9
20260502104204 2 63 3.2 8.0 0.00 0.00 0.00 76 1011.8
20260502102704 2 63 1.6 3.2 0.00 0.00 0.00 75 1011.9
20260502102204 2 63 1.6 8.0 0.00 0.00 0.00 75 1011.9
20260502100203 2 63 4.8 8.0 0.00 0.00 0.00 74 1011.6
20260502090703 1 65 3.2 8.0 0.00 0.00 0.00 79 1011.4
20260502090203 1 66 3.2 11.3 0.00 0.00 0.00 79 1011.4
20260502070705 2 63 1.6 4.8 0.00 0.00 0.00 77 1011.3
20260502070205 2 63 1.6 4.8 0.00 0.00 0.00 77 1011.3
20260502064705 2 63 1.6 4.8 0.00 0.00 0.00 77 1011.2
20260502062705 2 63 1.6 4.8 0.00 0.00 0.00 76 1011.2
20260502062205 2 63 3.2 4.8 0.00 0.00 0.00 76 1011.2
20260502060206 2 61 1.6 3.2 0.00 0.00 0.00 76 1011.2
20260502054204 2 62 1.6 8.0 0.00 0.00 0.00 74 1011.2
20260502052705 3 62 3.2 4.8 0.00 0.00 0.00 73 1011.2
20260502052205 3 62 3.2 4.8 0.00 0.00 0.00 72 1011.1
20260502050705 3 61 3.2 4.8 0.00 0.00 0.00 72 1011.1
20260502050205 3 61 3.2 12.9 0.00 0.00 0.00 71 1011.1
20260502044705 3 69 1.6 4.8 0.00 0.00 0.00 72 1011.0
20260502044204 3 68 3.2 12.9 0.00 0.00 0.00 71 1011.1
20260502042705 3 71 3.2 8.0 0.00 0.00 0.00 72 1011.1
20260502042205 3 71 3.2 4.8 0.00 0.00 0.00 73 1011.1
20260502040705 3 72 3.2 4.8 0.00 0.00 0.00 73 1011.2
20260502040205 3 72 3.2 4.8 0.00 0.00 0.00 73 1011.2
20260502034705 3 72 1.6 4.8 0.00 0.00 0.00 72 1011.2
20260502034205 3 72 1.6 4.8 0.00 0.00 0.00 71 1011.1
20260502032704 4 72 3.2 4.8 0.00 0.00 0.00 70 1011.0
20260502032205 4 72 1.6 4.8 0.00 0.00 0.00 69 1011.1
20260502030707 5 72 3.2 4.8 0.00 0.00 0.00 68 1011.1
20260502030205 5 71 4.8 11.3 0.00 0.00 0.00 68 1011.0
20260502024705 5 71 4.8 8.0 0.00 0.00 0.00 67 1011.0
20260502024205 5 72 4.8 8.0 0.00 0.00 0.00 67 1011.0
20260502022705 5 71 3.2 4.8 0.00 0.00 0.00 66 1011.0
20260502022205 5 71 3.2 8.0 0.00 0.00 0.00 65 1011.1